Regional Weather Roundup
Issued by NWS Cleveland, OH

Home | Current Version | Previous Version | Graphics & Text | Print | Product List | Glossary On
Versions: 1 2 3 4 5 6 7 8 9 10 11 12 13 14 15 16 17 18 19 20 21 22 23 24 25 26 27 28 29 30 31 32 33 34 35 36 37 38 39 40 41 42 43 44 45 46 47 48 49 50
000
ASUS41 KCLE 240902
RWRCLE
OHIO REGIONAL WEATHER ROUNDUP
NATIONAL WEATHER SERVICE CLEVELAND, OH
500 AM EDT FRI OCT 24 2014

NOTE: "FAIR" INDICATES FEW OR NO CLOUDS BELOW 12,000 FEET WITH NO
SIGNIFICANT WEATHER AND/OR OBSTRUCTIONS TO VISIBILITY.

OHZ001>008-015>018-024>027-034-035-043-044-241000-
   NORTHWEST OHIO

CITY           SKY/WX    TMP DP  RH WIND       PRES   REMARKS
DEFIANCE       PTCLDY    36  34  92 CALM      30.09F
FINDLAY        MOCLDY    38  36  92 S3        30.09F
TOLEDO EXPRESS PTCLDY    36  35  96 CALM      30.09F FOG
TOLEDO EXEC    MOCLDY    40  36  86 SW3       30.11R
LIMA           MOCLDY    42  38  85 CALM      30.10S
$$

OHZ009>014-019>023-028>033-038-089-241000-
   NORTHEAST OHIO

CITY           SKY/WX    TMP DP  RH WIND       PRES   REMARKS
CLE-HOPKINS    MOCLDY    37  35  92 SW3       30.12R
CLE-LAKEFRONT  PTCLDY    44  38  79 S5        30.09R
CUY CO. ARPT   NOT AVBL
LORAIN-ELYRIA  MOCLDY    37  36  96 CALM      30.10S
ASHTABULA      PTCLDY    36  34  92 CALM      30.09R FOG
AKRON-CANTON   MOCLDY    40  35  83 W6        30.08S
WOOSTER        MOCLDY    36  34  92 CALM      30.10S
MANSFIELD      CLOUDY    38  36  92 SE3       30.10S
YOUNGSTOWN     PTCLDY    37  35  92 CALM      30.07S
$$

OHZ042-051>053-060>062-070>072-077>081-241000-
  SOUTHWEST OHIO

CITY           SKY/WX    TMP DP  RH WIND       PRES   REMARKS
CINC-COVINGTON CLOUDY    43  39  86 CALM      30.12S
CINC-LUNKEN    MOCLDY    40  39  97 N3        30.14S
HAMILTON       MOCLDY    38  37  97 CALM      30.13S FOG
DAYTON         CLOUDY    43  39  86 E5        30.11S
WRIGHT-PAT AFB NOT AVBL
DAYTON GENERAL PTCLDY    40  38  93 CALM      30.11S
WILMINGTON     PTCLDY    39  36  89 CALM      30.11F
$$

OHZ036-037-039>041-045>050-054>059-063>069-073>076-082>088-241000-
  CENTRAL AND SOUTHEAST OHIO

CITY           SKY/WX    TMP DP  RH WIND       PRES   REMARKS
COLUMBUS       CLOUDY    40  37  89 CALM      30.11F
OSU AIRPORT    CLOUDY    41  38  89 CALM      30.10F FOG
BOLTON FIELD   MOCLDY    38  38 100 MISG      30.11S FOG
RICKENBACK AFB NOT AVBL
NEWARK         CLOUDY    38  36  92 CALM      30.11F FOG
MARION         MOCLDY    38  36  92 S3        30.11R FOG
LANCASTER      MOCLDY    35  33  92 CALM      30.11F FOG
ZANESVILLE     CLOUDY    37  35  92 CALM      30.11R
NEW PHILLY     FOG       37  36  96 CALM      30.11S VSB 1/4
$$



USA.gov is the U.S. government's official web portal to all federal, state and local government web resources and services.